This is the latest recevied weather packets stored in our database for station/object KO4ZGL-13. If no packets are shown the sender has not sent any weather packets the latest 10 day(s).
| Time | Temp. | Humidity | Pressure | Rain* | Wind** | Luminosity | Snow |
|---|---|---|---|---|---|---|---|
| 1787496603 | 31.11° C | 83% | 1015.6 hPa | 0 mm | - | 467 W/m² | - |
| 1787496299 | 30.56° C | 84% | 1015.3 hPa | 0 mm | - | 615 W/m² | - |
| 1787495997 | 30.56° C | 85% | 1015.5 hPa | 0 mm | - | 586 W/m² | - |
| 1787495693 | 30° C | 87% | 1015.7 hPa | 0 mm | - | 583 W/m² | - |
| 1787495388 | 29.44° C | 87% | 1015.6 hPa | 0 mm | - | 553 W/m² | - |
| 1787495084 | 28.89° C | 88% | 1015.8 hPa | 0 mm | - | 545 W/m² | - |
| 1787494779 | 29.44° C | 89% | 1015.5 hPa | 0 mm | - | 495 W/m² | - |
| 1787494474 | 28.89° C | 90% | 1015.7 hPa | 0 mm | - | 516 W/m² | - |
| 1787494170 | 28.89° C | 90% | 1015.6 hPa | 0 mm | - | 452 W/m² | - |
| 1787493866 | 28.33° C | 91% | 1016 hPa | 0 mm | - | 475 W/m² | - |
| 1787493561 | 28.33° C | 91% | 1015.8 hPa | 0 mm | - | 386 W/m² | - |
| 1787493257 | 27.78° C | 92% | 1015.8 hPa | 0 mm | - | 423 W/m² | - |
| 1787492953 | 27.78° C | 95% | 1015.8 hPa | 0 mm | - | 365 W/m² | - |
| 1787492648 | 27.22° C | 96% | 1015.9 hPa | 0 mm | - | 405 W/m² | - |
| 1787492344 | 27.22° C | 97% | 1015.7 hPa | 0 mm | - | 266 W/m² | - |
| 1787492044 | 26.67° C | 98% | 1015.4 hPa | 0 mm | - | 493 W/m² | - |
| 1787491739 | 26.11° C | 99% | 1015.7 hPa | 0 mm | - | 467 W/m² | - |
| 1787491434 | 25.56° C | 99% | 1015.4 hPa | 0 mm | - | 128 W/m² | - |
| 1787491130 | 25° C | 99% | 1015.6 hPa | 0 mm | - | 106 W/m² | - |
| 1787490826 | 25° C | 99% | 1015.8 hPa | 0 mm | - | 98 W/m² | - |
| 1787490525 | 25° C | 99% | 1015.6 hPa | 0 mm | - | 99 W/m² | - |
| 1787490224 | 25° C | 99% | 1015.5 hPa | 0 mm | - | 96 W/m² | - |
| 1787489918 | 24.44° C | 99% | 1015.3 hPa | 0 mm | - | 94 W/m² | - |
| 1787489613 | 24.44° C | 99% | 1015.4 hPa | 0 mm | - | 82 W/m² | - |
| 1787489310 | 24.44° C | 99% | 1015.2 hPa | 0 mm | - | 68 W/m² | - |
* Rain latest hour (hover to see other rain measurements)
** Current wind speed in m/s (hover to see current wind gust speed)